Weather History for Cairns, QU

Change the Weather History Date:

Monday, October 7, 2013

  Actual Average Record
Temperature  
Mean Temperature 75 °F -  
Max Temperature 84 °F 85 °F 86 °F (1996)
Min Temperature 66 °F 70 °F 62 °F (2006)
Cooling Degree Days 10    
Growing Degree Days 25 (Base 50)    
Moisture  
Dew Point 64 °F    
Average Humidity 68    
Maximum Humidity 94    
Minimum Humidity 43    
Precipitation  
Precipitation 0.00 in 0.07 in - ()
Sea Level Pressure  
Sea Level Pressure 29.89 in    
Wind  
Wind Speed 8 mph ()    
Max Wind Speed 15 mph    
Max Gust Speed -    
Visibility 7.2 miles    
Events      
Averages and records for this station are not official NWS values.
T = Trace of Precipitation, MM = Missing Value Source: Averaged Metar Reports

Daily Weather History Graph

Daily Weather History Graph

Search for Another Location

Airport:

Trip Planner

Search our weather history database for the weather conditions in past years. The results will help you decide how hot, cold, wet, or windy it might be!

Date:

Astronomy

Oct. 07, 2013 Rise Set
Actual Time 5:54 AM AEST 6:15 PM AEST
Civil Twilight 5:33 AM AEST 6:36 PM AEST
Nautical Twilight 5:07 AM AEST 7:02 PM AEST
Astronomical Twilight 4:42 AM AEST 7:27 PM AEST
Moon 7:17 AM AEST (10/7) 8:21 PM AEST (10/7)
Length of Visible Light 13h 03m
Length of Day
12h 20m
Waxing Crescent, 5% of the Moon is Illuminated
Oct 7
Waxing Crescent
Oct 12
First Quarter
Oct 19
Full
Oct 27
Last Quarter
Nov 3
New

Hourly Weather History & Observations

Time (AEST) Temp. Heat Index Dew Point Humidity Pressure Visibility Wind Dir Wind Speed Gust Speed Precip Events Conditions
12:00 AM 71 °F - 63 °F 70% 29.94 in - SSE 10.4 mph - -  
12:00 AM 71.6 °F - 62.6 °F 73% 29.92 in 6.2 mi SSE 10.4 mph - N/A   Partly Cloudy
12:30 AM 69.8 °F - 62.6 °F 78% 29.92 in 6.2 mi SSE 4.6 mph - N/A   Partly Cloudy
1:00 AM 68 °F - 64 °F 84% 29.93 in - West 3.5 mph - -  
1:00 AM 68.0 °F - 64.4 °F 88% 29.92 in 6.2 mi West 3.5 mph - N/A   Partly Cloudy
1:30 AM 66.2 °F - 64.4 °F 94% 29.92 in 6.2 mi Calm Calm - N/A   Partly Cloudy
2:00 AM 69.8 °F - 62.6 °F 78% 29.89 in 6.2 mi SE 8.1 mph - N/A   Partly Cloudy
2:30 AM 68.0 °F - 62.6 °F 83% 29.89 in 6.2 mi SE 9.2 mph - N/A   Partly Cloudy
3:00 AM 69 °F - 62 °F 72% 29.89 in - SSE 11.5 mph - -  
3:00 AM 68.0 °F - 62.6 °F 83% 29.89 in 6.2 mi SSE 11.5 mph - N/A   Partly Cloudy
3:30 AM 68.0 °F - 62.6 °F 83% 29.89 in 6.2 mi SSE 11.5 mph - N/A   Partly Cloudy
4:00 AM 69 °F - 62 °F 72% 29.89 in - SSE 10.4 mph - -  
4:00 AM 68.0 °F - 62.6 °F 83% 29.89 in 6.2 mi SSE 10.4 mph - N/A   Partly Cloudy
4:30 AM 68.0 °F - 62.6 °F 83% 29.89 in 6.2 mi South 3.5 mph - N/A   Partly Cloudy
5:00 AM 66.2 °F - 62.6 °F 88% 29.89 in 6.2 mi Calm Calm - N/A   Partly Cloudy
5:30 AM 68.0 °F - 62.6 °F 83% 29.89 in 6.2 mi South 5.8 mph - N/A   Partly Cloudy
6:00 AM 67 °F - 62 °F 78% 29.90 in 19 mi SE 11.5 mph - -   Partly Cloudy
6:00 AM 68.0 °F - 62.6 °F 83% 29.89 in 6.2 mi SE 11.5 mph - N/A   Partly Cloudy
6:30 AM 68.0 °F - 62.6 °F 83% 29.89 in 6.2 mi SE 10.4 mph - N/A   Partly Cloudy
7:00 AM 70 °F - 62 °F 69% 29.92 in - SE 10.4 mph - -  
7:00 AM 69.8 °F - 62.6 °F 78% 29.92 in 6.2 mi SE 10.4 mph - N/A   Partly Cloudy
7:30 AM 73.4 °F - 62.6 °F 69% 29.92 in 6.2 mi SE 11.5 mph - N/A   Partly Cloudy
8:00 AM 77.0 °F - 62.6 °F 61% 29.92 in 6.2 mi South 10.4 mph - N/A   Partly Cloudy
8:30 AM 77.0 °F - 60.8 °F 57% 29.92 in 6.2 mi South 10.4 mph - N/A   Partly Cloudy
9:00 AM 78 °F - 62 °F 48% 29.94 in 19 mi SSE 9.2 mph - -   Partly Cloudy
9:00 AM 78.8 °F - 62.6 °F 57% 29.92 in 6.2 mi SSE 9.2 mph - N/A   Partly Cloudy
9:30 AM 80.6 °F 81.8 °F 62.6 °F 54% 29.92 in 6.2 mi SE 8.1 mph - N/A   Partly Cloudy
10:00 AM 81 °F - 62 °F 43% 29.94 in - ESE 9.2 mph - -  
10:00 AM 80.6 °F 81.8 °F 62.6 °F 54% 29.92 in 6.2 mi ESE 9.2 mph - N/A   Partly Cloudy
10:30 AM 82.4 °F 83.4 °F 62.6 °F 51% 29.92 in 6.2 mi ENE 8.1 mph - N/A   Partly Cloudy
11:00 AM 84.2 °F 85.0 °F 62.6 °F 48% 29.89 in 6.2 mi NE 15.0 mph - N/A   Partly Cloudy
11:30 AM 82.4 °F 83.9 °F 64.4 °F 54% 29.89 in 6.2 mi ENE 15.0 mph - N/A   Partly Cloudy
12:00 PM 82 °F - 63 °F 43% 29.90 in 19 mi ENE 15.0 mph - -   Partly Cloudy
12:00 PM 82.4 °F 83.4 °F 62.6 °F 51% 29.89 in 6.2 mi ENE 15.0 mph - N/A   Partly Cloudy
12:30 PM 82.4 °F 83.9 °F 64.4 °F 54% 29.89 in 6.2 mi NE 13.8 mph - N/A   Partly Cloudy
1:00 PM 82 °F - 64 °F 45% 29.88 in - NE 12.7 mph - -  
1:00 PM 82.4 °F 83.9 °F 64.4 °F 54% 29.86 in 6.2 mi NE 12.7 mph - N/A   Partly Cloudy
1:30 PM 82.4 °F 83.9 °F 64.4 °F 54% 29.86 in 6.2 mi NNE 12.7 mph - N/A   Scattered Clouds
2:00 PM 80.6 °F 81.8 °F 62.6 °F 54% 29.86 in 6.2 mi NE 12.7 mph - N/A   Scattered Clouds
2:30 PM 82.4 °F 83.9 °F 64.4 °F 54% 29.83 in 6.2 mi NNE 10.4 mph - N/A   Partly Cloudy
3:00 PM 82 °F - 65 °F 46% 29.84 in 19 mi NNE 10.4 mph - -   Partly Cloudy
3:00 PM 82.4 °F 83.9 °F 64.4 °F 54% 29.83 in 6.2 mi NNE 10.4 mph - N/A   Partly Cloudy
3:30 PM 78.8 °F - 64.4 °F 61% 29.83 in 6.2 mi NNE 10.4 mph - N/A   Mostly Cloudy
4:00 PM 78 °F - 64 °F 54% 29.84 in - NE 9.2 mph - -  
4:00 PM 78.8 °F - 64.4 °F 61% 29.83 in 6.2 mi NE 9.2 mph - N/A   Partly Cloudy
4:30 PM 78.8 °F - 64.4 °F 61% 29.83 in 6.2 mi NNE 9.2 mph - N/A   Partly Cloudy
5:00 PM 77.0 °F - 64.4 °F 65% 29.83 in 6.2 mi NNE 9.2 mph - N/A   Partly Cloudy
6:00 PM 76 °F - 65 °F 61% 29.86 in - NE 8.1 mph - -  
6:00 PM 77.0 °F - 64.4 °F 65% 29.86 in 6.2 mi NE 8.1 mph - N/A   Partly Cloudy
6:30 PM 77.0 °F - 66.2 °F 69% 29.86 in 6.2 mi ENE 8.1 mph - N/A   Partly Cloudy
7:00 PM 75 °F - 65 °F 65% 29.88 in - East 8.1 mph - -  
7:00 PM 75.2 °F - 66.2 °F 73% 29.86 in 6.2 mi East 8.1 mph - N/A   Partly Cloudy
7:30 PM 73.4 °F - 66.2 °F 78% 29.86 in 6.2 mi SSE 5.8 mph - N/A   Partly Cloudy
8:00 PM 73.4 °F - 64.4 °F 73% 29.89 in 6.2 mi SSW 4.6 mph - N/A   Partly Cloudy
8:30 PM 73.4 °F - 64.4 °F 73% 29.89 in 6.2 mi South 4.6 mph - N/A   Partly Cloudy
9:00 PM 73 °F - 65 °F 68% 29.91 in - South 4.6 mph - -  
9:00 PM 73.4 °F - 64.4 °F 73% 29.89 in 6.2 mi South 4.6 mph - N/A   Partly Cloudy
9:30 PM 71.6 °F - 64.4 °F 78% 29.89 in 6.2 mi South 4.6 mph - N/A   Partly Cloudy
10:00 PM 70 °F - 65 °F 81% 29.92 in - Calm Calm - -  
10:00 PM 69.8 °F - 66.2 °F 88% 29.89 in 6.2 mi Calm Calm - N/A   Partly Cloudy
10:30 PM 68.0 °F - 64.4 °F 88% 29.89 in 6.2 mi West 3.5 mph - N/A   Partly Cloudy
11:00 PM 68.0 °F - 64.4 °F 88% 29.89 in 6.2 mi WNW 2.3 mph - N/A   Partly Cloudy
11:30 PM 68.0 °F - 64.4 °F 88% 29.89 in 6.2 mi WNW 3.5 mph - N/A   Partly Cloudy